Location: Austin
(30.3000°N, 97.7500°W)
Time: 22:36:00
(UTC-05:00)

Cosmos 1190 Rocket - Pass Details

Date: 06 May 2026
Orbit: 752 x 776 km, 74.1° (Epoch: 13 May)

Event Time Altitude Azimuth Distance (km) Brightness Sun altitude
Rises 21:55:56 0° 343° (NNW) 3,238 8.1 -20.6°
Reaches altitude 10° 21:58:20 10° 344° (NNW) 2,305 7.2 -21.1°
Maximum altitude 22:03:34 89° 257° (WSW) 765 3.9 -22.0°
Enters shadow 22:05:10 46° 166° (SSE) 1,014 4.2 -22.3°
